Fort Simpson, Northwest Territories

11:35 AM MST on December 07, 2016 (GMT -0700)
Fort Simpson

Weather History for CYFS - September, 2013

Change the Weather History Date:

Thursday, September 26, 2013

  Actual Average Record
Temperature  
Mean Temperature 48 °F -  
Max Temperature 57 °F 47 °F 68 °F (1996)
Min Temperature 39 °F 31 °F 17 °F (2002)
Degree Days  
Heating Degree Days 17    
Moisture  
Dew Point 39 °F    
Average Humidity 73    
Maximum Humidity 93    
Minimum Humidity 42    
Precipitation  
Precipitation 0.00 in - - ()
Sea Level Pressure  
Sea Level Pressure 29.77 in    
Wind  
Wind Speed 5 mph ()    
Max Wind Speed 12 mph    
Max Gust Speed -    
Visibility 15.0 miles    
Events      
Averages and records for this station are not official NWS values.
T = Trace of Precipitation, MM = Missing Value Source: Averaged Metar Reports

Daily Weather History Graph

Daily Weather History Graph

Search for Another Location

Airport or City:

Trip Planner

Search our weather history database for the weather conditions in past years. The results will help you decide how hot, cold, wet, or windy it might be!

Date:

Astronomy

Sep. 26, 2013 Rise Set
Actual Time 7:59 AM MDT 7:50 PM MDT
Civil Twilight 7:16 AM MDT 8:34 PM MDT
Nautical Twilight 6:23 AM MDT 9:26 PM MDT
Astronomical Twilight 5:26 AM MDT 10:23 PM MDT
Moon 11:23 PM MDT (9/26) 4:28 PM MDT (9/26)
Length of Visible Light 13h 18m
Length of Day
11h 50m
Waning Gibbous, 54% of the Moon is Illuminated
Sep 26
Waning Gibbous
Sep 26
Last Quarter
Oct 4
New
Oct 11
First Quarter
Oct 18
Full

Hourly Weather History & Observations

Time (MDT) Temp. Windchill Dew Point Humidity Pressure Visibility Wind Dir Wind Speed Gust Speed Precip Events Conditions
12:00 AM 42 °F - 38 °F 82% 29.99 in 15 mi SSE 4.6 mph - -  
12:00 AM 42.8 °F 40.1 °F 39.2 °F 87% 29.99 in 15.0 mi SSE 4.6 mph - N/A   Clear
1:00 AM 41.0 °F 39.0 °F 39.2 °F 93% 29.97 in 15.0 mi SE 3.5 mph - N/A   Clear
2:00 AM 41.0 °F 38.0 °F 37.4 °F 87% 29.94 in 15.0 mi SE 4.6 mph - N/A   Clear
3:00 AM 41.0 °F 37.1 °F 37.4 °F 87% 29.92 in 15.0 mi SE 5.8 mph - N/A   Clear
4:00 AM 39.2 °F 34.2 °F 37.4 °F 93% 29.90 in 15.0 mi ESE 6.9 mph - N/A   Clear
5:00 AM 39.2 °F 35.0 °F 37.4 °F 93% 29.88 in 15.0 mi SE 5.8 mph - N/A   Clear
6:00 AM 39 °F - 37 °F 92% 29.86 in 15 mi SE 5.8 mph - -   Clear
6:00 AM 39.2 °F 35.0 °F 37.4 °F 93% 29.86 in 15.0 mi SE 5.8 mph - N/A   Partly Cloudy
7:00 AM 39.2 °F 35.0 °F 37.4 °F 93% 29.84 in 15.0 mi SE 5.8 mph - N/A   Partly Cloudy
8:00 AM 39.2 °F 32.0 °F 35.6 °F 87% 29.82 in 15.0 mi East 11.5 mph - N/A   Partly Cloudy
9:00 AM 39.2 °F 32.0 °F 35.6 °F 87% 29.81 in 15.0 mi SE 11.5 mph - N/A   Partly Cloudy
10:00 AM 41.0 °F 34.3 °F 37.4 °F 87% 29.79 in 15.0 mi SE 11.5 mph - N/A   Partly Cloudy
11:00 AM 46.4 °F 43.5 °F 39.2 °F 76% 29.77 in 15.0 mi SE 5.8 mph - N/A   Scattered Clouds
12:00 PM 49 °F - 35 °F 48% 29.75 in 15 mi SE 5.8 mph - -   Mostly Cloudy
12:00 PM 50.0 °F - 35.6 °F 58% 29.75 in 15.0 mi SE 5.8 mph - N/A   Mostly Cloudy
1:00 PM 51.8 °F - 41.0 °F 67% 29.73 in 15.0 mi ESE 5.8 mph - N/A   Mostly Cloudy
2:00 PM 55.4 °F - 41.0 °F 58% 29.70 in 15.0 mi ESE 5.8 mph - N/A   Mostly Cloudy
3:00 PM 57.2 °F - 39.2 °F 51% 29.68 in 15.0 mi SSE 5.8 mph - N/A   Mostly Cloudy
4:00 PM 57.2 °F - 39.2 °F 51% 29.66 in 15.0 mi SSE 5.8 mph - N/A   Mostly Cloudy
5:00 PM 57.2 °F - 39.2 °F 51% 29.65 in 15.0 mi SE 5.8 mph - N/A   Mostly Cloudy
6:00 PM 56 °F - 39 °F 42% 29.64 in 15 mi Calm Calm - -   Mostly Cloudy
6:00 PM 57.2 °F - 39.2 °F 51% 29.64 in 15.0 mi Calm Calm - N/A   Mostly Cloudy
7:00 PM 55.4 °F - 41.0 °F 58% 29.63 in 15.0 mi SSE 5.8 mph - N/A   Mostly Cloudy
8:00 PM 51.8 °F - 41.0 °F 67% 29.62 in 15.0 mi Calm Calm - N/A   Mostly Cloudy
9:00 PM 51.8 °F - 41.0 °F 67% 29.60 in 15.0 mi Calm Calm - N/A   Mostly Cloudy
10:00 PM 51.8 °F - 41.0 °F 67% 29.59 in 15.0 mi ESE 3.5 mph - N/A   Scattered Clouds
11:00 PM 50.0 °F - 42.8 °F 76% 29.57 in 15.0 mi South 5.8 mph - N/A   Mostly Cloudy